Zurück zum Katalog

ARIANE 2 DEB

AktivGTO
NORAD 33535·DEBRIS·🇫🇷 France

Gestartet May 17, 1988 von Guiana Space Centre

Loading…

TLE

AlterndSource: Space-Track

Epoche: Sep 14, 2026, 09:23 UTC

1 33535U 88040J   26257.39151988  .00002296  00000-0  91990-2 0  9994
2 33535   7.6560 238.0240 7076434 314.1604   5.9201  2.43357680174371

Verfolge ARIANE 2 DEB in Echtzeit mit AllMySat

Download on the App Store